Flag for Germany Weather past 2 weeks in Fellbach, Baden-Württemberg, Germany

Now
43 °F

Light rain. Partly sunny.


Feels Like: 35 °F
Forecast: 40 / 47 °F
Wind: 15 mph from West

Location: Stuttgart-Echterdingen

Current Time: Oct 22, 2014 at 2:40:30 PM

Latest Report: Oct 22, 2014 at 1:50 PM


Visibility: N/A

Pressure: 30.07 "Hg

Humidity: 81%

Dew point: 37 °F

Location of FellbachLocation

Historic Weather in Fellbach — Graph

°F

Fellbach temperature yesterday

Maximum temperature yesterday: 64 °F (at 2:50 PM)
Minimum temperature yesterday: 46 °F (at 11:20 PM)
Average temperature yesterday: 56 °F

Past Weeks' High & Low Weather Summary

 TemperatureHumidityPressure
High79 °F (Oct 9, 2:20 PM)100% (Oct 10, 7:50 AM)30.21 "Hg (Oct 10, 7:50 AM)
Low43 °F (Oct 18, 7:50 AM)32% (Oct 9, 3:50 PM)29.65 "Hg (Oct 21, 6:20 PM)
Average58 °F85%29.94 "Hg
* Reported Oct 7 1:20 PM — Oct 22 1:20 PM, Fellbach, Weather by CustomWeather, © 2014

Note: Actual official high and low records may vary slightly from our data, if they occured in-between our weather recording intervals... More about our weather records

Advertising

Fellbach weather history for previous 24 hours

 ConditionsComfort  
Time TempWeatherWind HumidityBarometerVisibility
1:20 PM
Oct 22
43 °FLight rain. Partly sunny.17 mph87%30.07 "HgN/A
12:50 PM43 °FLight rain. Partly sunny.20 mph87%30.07 "HgN/A
12:20 PM45 °FSprinkles. Partly sunny.20 mph76%30.07 "HgN/A
11:50 AM45 °FSprinkles. Partly sunny.20 mph76%30.07 "HgN/A
11:20 AM45 °FSprinkles. Partly sunny.20 mph76%30.07 "HgN/A
10:50 AM45 °FSprinkles. Broken clouds.21 mph71%30.04 "HgN/A
10:20 AM45 °FBroken clouds.23 mph76%30.04 "HgN/A
9:50 AM45 °FBroken clouds.20 mph76%30.04 "HgN/A
9:20 AM43 °FBroken clouds.22 mph81%30.04 "HgN/A
8:50 AM43 °FPartly cloudy.20 mph81%30.01 "HgN/A
8:20 AM43 °FPartly cloudy.22 mph76%30.01 "HgN/A
7:50 AM43 °FPassing clouds.21 mph76%30.01 "HgN/A
7:20 AM43 °FPassing clouds.16 mph76%29.98 "HgN/A
6:50 AM43 °FPartly cloudy.20 mph76%29.98 "HgN/A
6:20 AM43 °FPartly cloudy.18 mph81%29.98 "HgN/A
5:50 AM43 °FSprinkles. Partly cloudy.15 mph81%29.98 "HgN/A
5:20 AM45 °FPartly cloudy.16 mph71%29.98 "HgN/A
4:50 AM43 °FPartly cloudy.21 mph76%29.95 "HgN/A
4:20 AM43 °FSprinkles. Partly cloudy.15 mph81%29.98 "HgN/A
3:50 AM45 °FPassing clouds.13 mph76%29.98 "HgN/A
3:20 AM45 °FPassing clouds.7 mph81%29.98 "HgN/A
2:50 AM45 °FPassing clouds.6 mph81%29.98 "HgN/A
2:20 AM45 °FPassing clouds.5 mph87%29.98 "HgN/A
1:50 AM45 °FPartly cloudy.8 mph81%29.98 "HgN/A
1:20 AM45 °FSprinkles. Partly cloudy.8 mph87%29.98 "HgN/A
12:50 AM45 °FRain showers. Partly cloudy.17 mph87%29.98 "HgN/A
12:20 AM46 °FSprinkles. Partly cloudy.14 mph82%29.98 "HgN/A
11:50 PM
Oct 21
46 °FClear.8 mph76%29.95 "Hg10 mi
11:20 PM46 °FPassing clouds.17 mph76%29.92 "HgN/A
10:50 PM48 °FPassing clouds.22 mph76%29.89 "HgN/A
10:20 PM48 °FPassing clouds.20 mph76%29.86 "HgN/A
9:50 PM48 °FSprinkles. Partly cloudy.24 mph76%29.83 "HgN/A
9:20 PM48 °FSprinkles. Partly cloudy.15 mph82%29.80 "HgN/A
8:50 PM50 °FPassing clouds.15 mph76%29.80 "HgN/A
8:20 PM50 °FPassing clouds.26 mph76%29.77 "HgN/A
7:50 PM50 °FStrong thunderstorms. Passing clouds.32 mph76%29.71 "HgN/A
7:20 PM57 °FSprinkles. Partly sunny.10 mph82%29.68 "HgN/A
6:50 PM59 °FSprinkles. Broken clouds.13 mph77%29.65 "HgN/A
6:20 PM61 °FScattered showers. Scattered clouds.14 mph68%29.65 "HgN/A
5:50 PM61 °FScattered clouds.12 mph68%29.68 "HgN/A
5:20 PM61 °FScattered clouds.10 mph63%29.71 "HgN/A
4:50 PM61 °FPartly sunny.9 mph63%29.74 "HgN/A
4:20 PM61 °FBroken clouds.10 mph68%29.77 "HgN/A
3:50 PM61 °FBroken clouds.13 mph72%29.77 "HgN/A
3:20 PM63 °FBroken clouds.10 mph64%29.80 "HgN/A
2:50 PM64 °FBroken clouds.12 mph64%29.80 "HgN/A
2:20 PM63 °FBroken clouds.13 mph59%29.80 "HgN/A
Weather by CustomWeather, © 2014

See weather overviewHow to use our weather pages